Fremont, MI

3:00 PM EST on November 19, 2017 (GMT -0500)
Fremont

Weather History for KFFX - October, 2013

Change the Weather History Date:

Monday, October 14, 2013

  Actual Average (KMKG) Record (KMKG)
Temperature  
Mean Temperature 48 °F -  
Max Temperature 60 °F 59 °F 78 °F (1968)
Min Temperature 35 °F 44 °F 28 °F (1979)
Degree Days  
Heating Degree Days 18    
Moisture  
Dew Point 38 °F    
Average Humidity 75    
Maximum Humidity 100    
Minimum Humidity 36    
Precipitation  
Precipitation 0.00 in - - ()
Sea Level Pressure  
Sea Level Pressure 30.37 in    
Wind  
Wind Speed 2 mph (East)    
Max Wind Speed 9 mph    
Max Gust Speed -    
Visibility 10 miles    
Events      
Averages and records for this station are not official NWS values.
T = Trace of Precipitation, MM = Missing Value Source: NWS Daily Summary

Daily Weather History Graph

Daily Weather History Graph

Search for Another Location

Airport or City:

Trip Planner

Search our weather history database for the weather conditions in past years. The results will help you decide how hot, cold, wet, or windy it might be!

Date:

Astronomy

Oct. 14, 2013 Rise Set
Actual Time 7:57 AM EDT 7:02 PM EDT
Civil Twilight 7:28 AM EDT 7:30 PM EDT
Nautical Twilight 6:55 AM EDT 8:03 PM EDT
Astronomical Twilight 6:21 AM EDT 8:36 PM EDT
Moon 4:37 PM EDT (10/14) 3:05 AM EDT (10/14)
Length of Visible Light 12h 02m
Length of Day
11h 05m
Waxing Gibbous, 79% of the Moon is Illuminated
Oct 14
Waxing Gibbous
Oct 18
Full
Oct 26
Last Quarter
Nov 3
New
Nov 10
First Quarter

Hourly Weather History & Observations

Time (EDT) Temp. Windchill Dew Point Humidity Pressure Visibility Wind Dir Wind Speed Gust Speed Precip Events Conditions
12:22 AM 41.0 °F - 41.0 °F 100% 30.39 in 10.0 mi Calm Calm - N/A   Clear
12:43 AM 39.2 °F - 39.2 °F 100% 30.40 in 7.0 mi Calm Calm - N/A   Clear
1:04 AM 39.2 °F - 39.2 °F 100% 30.40 in 10.0 mi Calm Calm - N/A   Clear
1:19 AM 39.2 °F - 39.2 °F 100% 30.40 in 7.0 mi Calm Calm - N/A   Clear
1:38 AM 39.2 °F - 39.2 °F 100% 30.40 in 7.0 mi Calm Calm - N/A   Scattered Clouds
2:38 AM 37.4 °F - 37.4 °F 100% 30.40 in 10.0 mi Calm Calm - N/A   Clear
3:01 AM 37.4 °F - 37.4 °F 100% 30.40 in 10.0 mi Calm Calm - N/A   Scattered Clouds
3:19 AM 39.2 °F - 39.2 °F 100% 30.40 in 10.0 mi Calm Calm - N/A   Scattered Clouds
3:38 AM 39.2 °F - 39.2 °F 100% 30.40 in 10.0 mi Calm Calm - N/A   Clear
3:58 AM 37.4 °F - 37.4 °F 100% 30.41 in 10.0 mi Calm Calm - N/A   Clear
4:38 AM 37.4 °F - 37.4 °F 100% 30.42 in 10.0 mi Calm Calm - N/A   Clear
5:02 AM 37.4 °F - 37.4 °F 100% 30.42 in 10.0 mi Calm Calm - N/A   Clear
5:18 AM 39.2 °F - 39.2 °F 100% 30.42 in 10.0 mi Calm Calm - N/A   Clear
5:38 AM 37.4 °F - 37.4 °F 100% 30.43 in 10.0 mi Calm Calm - N/A   Clear
5:58 AM 37.4 °F - 37.4 °F 100% 30.42 in 10.0 mi Calm Calm - N/A   Clear
6:18 AM 37.4 °F - 37.4 °F 100% 30.43 in 10.0 mi Calm Calm - N/A   Clear
6:38 AM 37.4 °F 33.8 °F 37.4 °F 100% 30.42 in 10.0 mi NE 4.6 mph - N/A   Clear
6:58 AM 42.8 °F 40.1 °F 41.0 °F 93% 30.42 in 10.0 mi East 4.6 mph - N/A   Clear
7:18 AM 39.2 °F 37.0 °F 37.4 °F 93% 30.43 in 10.0 mi ESE 3.5 mph - N/A   Clear
8:00 AM 35.6 °F - 35.6 °F 100% 30.43 in 10.0 mi Calm Calm - N/A   Clear
8:23 AM 35.6 °F - 35.6 °F 100% 30.43 in 10.0 mi Calm Calm - N/A   Clear
8:39 AM 35.6 °F - 35.6 °F 100% 30.43 in 10.0 mi Calm Calm - N/A   Clear
8:59 AM 41.0 °F 39.0 °F 41.0 °F 100% 30.43 in 10.0 mi East 3.5 mph - N/A   Clear
9:27 AM 46.4 °F 43.5 °F 42.8 °F 87% 30.43 in 10.0 mi East 5.8 mph - N/A   Clear
9:38 AM 46.4 °F 43.5 °F 42.8 °F 87% 30.43 in 10.0 mi ENE 5.8 mph - N/A   Clear
9:56 AM 48.2 °F - 44.6 °F 87% 30.44 in 10.0 mi ENE 5.8 mph - N/A   Clear
10:16 AM 50.0 °F - 44.6 °F 82% 30.43 in 10.0 mi East 6.9 mph - N/A   Clear
10:36 AM 51.8 °F - 42.8 °F 71% 30.42 in 10.0 mi East 8.1 mph - N/A   Clear
10:56 AM 51.8 °F - 41.0 °F 67% 30.42 in 10.0 mi East 5.8 mph - N/A   Clear
11:57 AM 55.4 °F - 39.2 °F 54% 30.41 in 10.0 mi East 5.8 mph - N/A   Clear
12:17 PM 55.4 °F - 39.2 °F 54% 30.40 in 10.0 mi ENE 9.2 mph - N/A   Clear
12:37 PM 55.4 °F - 39.2 °F 54% 30.40 in 10.0 mi ENE 9.2 mph - N/A   Clear
12:58 PM 57.2 °F - 37.4 °F 48% 30.40 in 10.0 mi ENE 9.2 mph - N/A   Clear
1:18 PM 57.2 °F - 37.4 °F 48% 30.39 in 10.0 mi NE 5.8 mph - N/A   Clear
1:36 PM 57.2 °F - 37.4 °F 48% 30.39 in 10.0 mi East 5.8 mph - N/A   Clear
2:36 PM 59.0 °F - 35.6 °F 42% 30.36 in 10.0 mi NNE 4.6 mph - N/A   Clear
3:00 PM 59.0 °F - 33.8 °F 39% 30.35 in 10.0 mi Calm Calm - N/A   Clear
3:37 PM 59.0 °F - 35.6 °F 42% 30.33 in 10.0 mi ENE 5.8 mph - N/A   Clear
3:56 PM 59.0 °F - 35.6 °F 42% 30.33 in 10.0 mi East 3.5 mph - N/A   Clear
4:16 PM 59.0 °F - 35.6 °F 42% 30.31 in 10.0 mi Calm Calm - N/A   Clear
4:36 PM 59.0 °F - 33.8 °F 39% 30.30 in 10.0 mi Calm Calm - N/A   Clear
5:00 PM 60.8 °F - 33.8 °F 36% 30.30 in 10.0 mi ESE 8.1 mph - N/A   Clear
5:22 PM 59.0 °F - 33.8 °F 39% 30.29 in 10.0 mi ESE 8.1 mph - N/A   Clear
5:38 PM 59.0 °F - 32.0 °F 36% 30.29 in 10.0 mi East 5.8 mph - N/A   Clear
7:17 PM 53.6 °F - 33.8 °F 47% 30.27 in 10.0 mi Calm Calm - N/A   Clear
7:37 PM 53.6 °F - 33.8 °F 47% 30.27 in 10.0 mi East 4.6 mph - N/A   Clear
8:04 PM 50.0 °F - 33.8 °F 54% 30.27 in 10.0 mi East 3.5 mph - N/A   Clear
8:20 PM 50.0 °F - 33.8 °F 54% 30.26 in 10.0 mi East 4.6 mph - N/A   Clear
8:39 PM 50.0 °F - 33.8 °F 54% 30.26 in 10.0 mi East 4.6 mph - N/A   Clear
9:02 PM 48.2 °F - 35.6 °F 62% 30.26 in 10.0 mi East 3.5 mph - N/A   Clear
9:59 PM 48.2 °F - 37.4 °F 66% 30.27 in 10.0 mi East 3.5 mph - N/A   Clear
10:19 PM 46.4 °F 44.3 °F 37.4 °F 71% 30.26 in 10.0 mi East 4.6 mph - N/A   Clear
10:39 PM 46.4 °F 45.2 °F 37.4 °F 71% 30.27 in 10.0 mi East 3.5 mph - N/A   Clear
11:00 PM 46.4 °F - 37.4 °F 71% 30.27 in 10.0 mi Calm Calm - N/A   Clear
11:39 PM 44.6 °F 41.4 °F 39.2 °F 81% 30.25 in 10.0 mi East 5.8 mph - N/A   Clear